星链-34627 (STARLINK-34627)

导读

STARLINK-34627是美国SpaceX星链星座中的一颗卫星,于2025年7月30日发射升空。星链项目旨在打造全球卫星互联网星座,为全球偏远地区、海洋等网络覆盖薄弱区域提供高速互联网服务,该卫星的入轨进一步扩充了星链星座的卫星规模,提升了星座服务能力。

基本信息
目录编号:
65016
目录名称:
STARLINK-34627
国际标识:
2025-161B
轨道中心:
EARTH
卫星名称:
星链-34627
卫星全名:
星链-34627 (STARLINK-34627)
卫星状态:
在轨 (已飞行401 天)
发射日期:
2025-07-30 UTC
国别 :
美国 (US)
星等 :
--
轨道信息
数据来源 国际轨道数据
星历时间: 2026-09-04T04:10:20+0800
9小时前
查看轨道信息
半长轴: 6840.859km
偏心率: 0.000149
轨道倾角: 53.159°
近地点辐角 75.481°
升交点赤经 185.431°
平近点角 284.636°
近地点: 461.702km
远地点: 463.742km
周期: 93.848分钟
每日圈数: 15.343939
详细信息
固有亮度:
5
最大亮度:
2.5
卫星平台:
Starlink V1.0
覆盖范围:
全球
运营商:
太空探索技术公司
运营商所在国:
美国
制造商(研发单位):
太空探索技术公司
制造商所在国:
美国
使用方式:
暂无
卫星简介
Starlink 计划是 SpaceX 推出的全球卫星互联网项目,通过发射低轨道卫星,为全球尤其是偏远地区提供高速、低延迟的互联网服务。自 2019 年起,Starlink 已部署数千颗卫星,旨在缩小全球数字鸿沟,推动互联网普及。该项目还为军事、航空等行业提供通信支持,带来广泛经济效益。
2D轨道图
3D轨道图
轨道高度分析图
轨道倾角分析图
轨道综合分析图
查看轨道综合分析图
交会数据列表
事件ID 空间交会对象 最接近时刻(TCA) 交会距离 交会风险概率(CRP) 交会风险指数(CRI) 操作
CDM_260904-173705-372006-501621
2026-09-04T
17:37:56+0000
0.435 km
远距离
1.04442E-4 高风险 0.75
CDM_260901-184705-703106-501621
2026-09-01T
18:47:41+0000
1.282 km
极远距离
1.133966E-5 中风险 0.56
CDM_260904-213205-372006-501621
2026-09-04T
21:32:25+0000
1.110 km
极远距离
5.689746E-6 低风险 0.5
CDM_260905-015605-227606-501621
2026-09-05T
01:56:32+0000
2.969 km
极远距离
1.205694E-6 低风险 0.37
CDM_260904-195805-372006-501621
2026-09-04T
19:58:37+0000
2.570 km
极远距离
6.296789E-7 极低风险 0.31